Regional Weather Roundup
Issued by NWS

Home | Current Version | Previous Version | Graphics & Text | Print | Product List | Glossary On
Versions: 1 2 3 4 5 6 7 8 9 10 11 12 13 14 15 16 17 18 19 20 21 22 23 24 25 26 27 28 29 30 31
000
ASUS45 KGTF 182110
RWRMT
MONTANA HOURLY WEATHER ROUNDUP
NATIONAL WEATHER SERVICE GREAT FALLS MT
300 PM MDT SAT APR 18 2015

NOTE: "FAIR" INDICATES FEW OR NO CLOUDS BELOW 12000 FEET WITH NO
SIGNIFICANT WEATHER AND/OR OBSTRUCTIONS TO VISIBILITY.

MTZ001>007-043-182200-
WEST OF THE DIVIDE

CITY           SKY/WX    TMP DP  RH WIND       PRES   REMARKS
KALISPELL      CLEAR     61  26  26 NE7       30.17S
MISSOULA       MOSUNNY   63  28  26 N6G18     30.14F
BUTTE          MOSUNNY   56  24  29 NW9G23    30.13R
DEER LODGE       N/A     48  28  46 NE12G22   30.22R
EUREKA           N/A     61  19  20 NE5       30.18F
HAMILTON         N/A     63  19  19 NW23      30.12F
LIBBY            N/A     64   7  10 N13       30.17F
$$

MTZ008-052>055-182200-
SOUTHWEST MONTANA

CITY           SKY/WX    TMP DP  RH WIND       PRES   REMARKS
BOZEMAN        MOSUNNY   53  33  46 N24G32    30.14R
DILLON         MOSUNNY   63  20  19 NE12      30.07F
$$

MTZ009-010-012-014-046-048-049-054-182200-
EAST SLOPES AND CENTRAL MONTANA

CITY           SKY/WX    TMP DP  RH WIND       PRES   REMARKS
CUT BANK       CLOUDY    45  26  47 N17       30.28S
GREAT FALLS    CLOUDY    40  34  79 VRB7      30.29F
MALMSTROM AFB  PTSUNNY   42  37  82 N6G21     30.29F
HELENA         CLOUDY    48  30  49 N16G23    30.27S
$$

MTZ011-013-016-021-045-047-050-051-182200-
NORTH CENTRAL MONTANA

CITY           SKY/WX    TMP DP  RH WIND       PRES   REMARKS
HAVRE          CLOUDY    53  22  29 NW20G28   30.20S
LEWISTOWN      CLOUDY    40  32  73 NW14G20   30.23S
FORT BENTON      N/A     46  34  61 SW9       30.28S
$$

MTZ017>020-022>042-056>058-061-062-182200-
EASTERN PLAINS

CITY           SKY/WX    TMP DP  RH WIND       PRES   REMARKS
BAKER          PTSUNNY   68  35  29 NW12      29.90F
BILLINGS       PTSUNNY   54  34  46 NE23G36   30.09R
GLASGOW        PTSUNNY   60  26  27 NW31G40   30.07R
JORDAN           N/A     60  30  32 N32G38    30.08R
LIVINGSTON     CLOUDY    49  30  48 NW21G30   30.15R
MILES CITY     PTSUNNY   61  37  41 N28G44    29.99R
SIDNEY         PTSUNNY   63  36  36 NW21      29.93R
WOLF POINT     CLOUDY    60  29  30 NW24G31   30.02R
BIG TIMBER       N/A     46  30  53 NE15      30.14R
FORSYTH          N/A     57  36  44 NW21G37   30.03R
PLENTYWOOD       N/A     55  27  33 NW25G35   29.95S
POPLAR           N/A     59  28  31 NW22G28   29.99R
$$

REGIONAL REPORTS...DAKOTAS

CITY           SKY/WX    TMP DP  RH WIND       PRES   REMARKS
WILLISTON      CLOUDY    59  40  49 N17       29.93R
MINOT          MOSUNNY   72  26  18 S18G24    29.83F
DICKINSON      PTSUNNY   67  38  34 SW18      29.87F
BEACH          MOCLDY    64  36  34 NW23G33   29.90S
CROSBY         MOCLDY    57  37  47 NW25G31   29.93S
WATFORD CITY   FAIR      63  37  39 NW26G38   29.87R
BISMARCK       CLOUDY    63  31  30 CALM      29.92F
GRAND FORKS    CLOUDY    68  24  19 SE12      29.94F
FARGO          CLOUDY    73  28  18 E13G18    29.92F
BUFFALO SD       N/A     55  36  48 SE20      29.87F
RAPID CITY     LGT RAIN  46  44  93 N10       29.93S FOG
$$

REGIONAL REPORTS...WYOMING/IDAHO/WASHINGTON

CITY           SKY/WX    TMP DP  RH WIND       PRES   REMARKS
GILLETTE       CLOUDY    61  40  45 NE13      29.91F
SHERIDAN       PTSUNNY   62  34  35 NW28G35   29.98R
BUFFALO WY     PTSUNNY   62  30  29 NW32G43   29.96R
CODY           CLOUDY    57  28  33 N17G24    30.02S
YELLOWSTONE LA   N/A     50  15  24 VRB5      30.11S
IDAHO FALLS    SUNNY     67  20  16 N12G25    30.02F
SALMON         SUNNY     64  21  19 N6G18     30.07F
BOISE          SUNNY     71  27  19 NW23G31   30.07F
SPOKANE        MOSUNNY   65  15  14 N10       30.22F
$$

REGIONAL REPORTS...ALBERTA

CITY           SKY/WX    TMP DP  RH WIND       PRES   REMARKS
EDMONTON       MOSUNNY   50  16  25 NW16G29   30.21S
CALGARY        MOSUNNY   52  12  20 N18G29    30.26S
LETHBRIDGE     PTSUNNY   46  25  42 NW20      30.28F
MEDICINE HAT   PTSUNNY   54  19  26 NW18G29   30.20S
$$

REGIONAL REPORTS...SASKATCHEWAN

CITY           SKY/WX    TMP DP  RH WIND       PRES   REMARKS
SWIFT CURRENT  PTSUNNY   50  23  34 NW26G37   30.06R
REGINA         PTSUNNY   55  32  41 NW29G36   29.98S
SASKATOON      PTSUNNY   48  32  53 W20G32    30.00F
$$



USA.gov is the U.S. government's official web portal to all federal, state and local government web resources and services.